• In Belarus
  • List of Countries
  • For 7 days
  • Water Temperature
  • Satellite Maps
  • Weather Map
  • Weather Widgets
  • user-avatar
    Login

    Hourly Weather Bregenz

    Today, 19 September, Tuesday

    Time Temperature Precipitation Wind Pressure Humidity
    00:00 +3°C° 0 mm 1 mps 645 mmHg 94%
    01:00 +3°C° 0 mm 1 mps 645 mmHg 95%
    02:00 +3°C° 0.1 mm 1 mps 644 mmHg 95%
    03:00 +3°C° 0.1 mm 1 mps 644 mmHg 95%
    04:00 +2°C° 0.1 mm 1 mps 644 mmHg 95%
    05:00 +2°C° 0.2 mm 1 mps 644 mmHg 95%
    06:00 +2°C° 0.2 mm 1 mps 644 mmHg 95%
    07:00 +2°C° 0 mm 2 mps 644 mmHg 97%
    08:00 +3°C° 0.4 mm 2 mps 644 mmHg 94%
    09:00 +4°C° 0.4 mm 2 mps 645 mmHg 91%
    10:00 +5°C° 0.4 mm 2 mps 645 mmHg 89%
    11:00 +5°C° 0.6 mm 2 mps 645 mmHg 87%
    12:00 +5°C° 0.6 mm 2 mps 645 mmHg 85%
    13:00 +5°C° 0 mm 2 mps 645 mmHg 88%
    14:00 +5°C° 0.5 mm 2 mps 645 mmHg 88%
    15:00 +5°C° 0.5 mm 2 mps 645 mmHg 88%
    16:00 +5°C° 0.5 mm 2 mps 645 mmHg 88%
    17:00 +4°C° 0.4 mm 2 mps 645 mmHg 91%
    18:00 +3°C° 0.4 mm 2 mps 645 mmHg 93%
    19:00 +4°C° 0.4 mm 1 mps 646 mmHg 95%
    20:00 +3°C° 0.3 mm 1 mps 646 mmHg 96%
    21:00 +3°C° 0.3 mm 1 mps 646 mmHg 96%
    22:00 +3°C° 0.3 mm 1 mps 647 mmHg 97%
    23:00 +3°C° 0.2 mm 1 mps 647 mmHg 97%

    Tomorrow, 20 September, Wednesday

    Time Temperature Precipitation Wind Pressure Humidity
    00:00 +3°C° 0.2 mm 1 mps 647 mmHg 97%
    01:00 +3°C° 0.2 mm 1 mps 647 mmHg 97%
    02:00 +3°C° 0.1 mm 1 mps 647 mmHg 97%
    03:00 +3°C° 0.1 mm 1 mps 647 mmHg 97%
    04:00 +3°C° 0.1 mm 1 mps 647 mmHg 98%
    05:00 +2°C° 0 mm 1 mps 647 mmHg 97%
    06:00 +2°C° 0 mm 1 mps 647 mmHg 97%
    07:00 +2°C° 0 mm 1 mps 647 mmHg 97%
    08:00 +4°C° 0 mm 1 mps 648 mmHg 93%
    09:00 +5°C° 0 mm 1 mps 648 mmHg 89%
    10:00 +6°C° 0 mm 1 mps 648 mmHg 85%
    11:00 +7°C° 0.1 mm 1 mps 648 mmHg 80%
    12:00 +8°C° 0.1 mm 1 mps 648 mmHg 74%
    13:00 +9°C° 0.1 mm 1 mps 648 mmHg 69%
    14:00 +9°C° 0 mm 1 mps 648 mmHg 68%
    15:00 +9°C° 0 mm 1 mps 648 mmHg 67%
    16:00 +9°C° 0 mm 1 mps 648 mmHg 67%
    17:00 +7°C° 0 mm 1 mps 648 mmHg 74%
    18:00 +5°C° 0 mm 1 mps 648 mmHg 82%
    19:00 +3°C° 0 mm 1 mps 647 mmHg 90%
    20:00 +3°C° 0 mm 1 mps 648 mmHg 90%
    21:00 +2°C° 0 mm 1 mps 648 mmHg 91%
    22:00 +2°C° 0 mm 1 mps 648 mmHg 92%
    23:00 +2°C° 0 mm 1 mps 648 mmHg 91%

    Day after tomorrow, 21 September, Thursday

    Time Temperature Precipitation Wind Pressure Humidity
    00:00 +1°C° 0 mm 1 mps 648 mmHg 89%
    01:00 -1°C° 0 mm 2 mps 648 mmHg 87%
    02:00 +1°C° 0 mm 1 mps 647 mmHg 84%
    03:00 +1°C° 0 mm 1 mps 647 mmHg 80%
    04:00 +1°C° 0 mm 1 mps 647 mmHg 77%
    05:00 +1°C° 0 mm 1 mps 647 mmHg 74%
    06:00 +2°C° 0 mm 1 mps 647 mmHg 71%
    07:00 +2°C° 0 mm 1 mps 647 mmHg 68%
    08:00 +5°C° 0 mm 1 mps 648 mmHg 63%
    09:00 +8°C° 0 mm 1 mps 648 mmHg 57%
    10:00 +11°C° 0 mm 1 mps 649 mmHg 51%
    11:00 +12°C° 0 mm 1 mps 649 mmHg 50%
    12:00 +13°C° 0 mm 1 mps 649 mmHg 48%
    13:00 +14°C° 0 mm 1 mps 649 mmHg 46%
    14:00 +14°C° 0 mm 1 mps 649 mmHg 49%
    15:00 +14°C° 0 mm 2 mps 649 mmHg 52%
    16:00 +13°C° 0 mm 2 mps 648 mmHg 55%
    17:00 +11°C° 0 mm 1 mps 648 mmHg 64%
    18:00 +8°C° 0 mm 1 mps 647 mmHg 73%
    19:00 +6°C° 0 mm 1 mps 647 mmHg 82%
    20:00 +6°C° 0 mm 1 mps 647 mmHg 81%
    21:00 +5°C° 0 mm 1 mps 647 mmHg 80%
    22:00 +5°C° 0 mm 1 mps 647 mmHg 79%
    23:00 +5°C° 0 mm 1 mps 647 mmHg 77%

    22 September, Friday

    Time Temperature Precipitation Wind Pressure Humidity
    00:00 +5°C° 0 mm 1 mps 647 mmHg 76%
    01:00 +5°C° 0 mm 1 mps 647 mmHg 74%
    02:00 +5°C° 0 mm 1 mps 647 mmHg 73%
    03:00 +5°C° 0 mm 1 mps 647 mmHg 73%
    04:00 +4°C° 0 mm 1 mps 647 mmHg 72%
    05:00 +5°C° 0 mm 1 mps 647 mmHg 71%
    06:00 +5°C° 0 mm 1 mps 647 mmHg 70%
    07:00 +5°C° 0 mm 1 mps 648 mmHg 70%
    08:00 +8°C° 0 mm 1 mps 649 mmHg 64%
    09:00 +11°C° 0 mm 1 mps 649 mmHg 58%
    10:00 +13°C° 0 mm 1 mps 650 mmHg 52%
    11:00 +14°C° 0 mm 1 mps 650 mmHg 51%
    12:00 +15°C° 0 mm 1 mps 651 mmHg 49%
    13:00 +16°C° 0 mm 1 mps 651 mmHg 48%
    14:00 +16°C° 0 mm 1 mps 651 mmHg 51%
    15:00 +15°C° 0 mm 1 mps 651 mmHg 53%
    16:00 +15°C° 0 mm 1 mps 651 mmHg 56%
    17:00 +13°C° 0 mm 1 mps 650 mmHg 66%
    18:00 +10°C° 0 mm 1 mps 650 mmHg 76%
    19:00 +7°C° 0 mm 1 mps 649 mmHg 85%
    20:00 +7°C° 0 mm 1 mps 649 mmHg 86%
    21:00 +7°C° 0 mm 1 mps 649 mmHg 87%
    22:00 +6°C° 0 mm 1 mps 650 mmHg 88%
    23:00 +6°C° 0 mm 1 mps 650 mmHg 87%

    23 September, Saturday

    Time Temperature Precipitation Wind Pressure Humidity
    00:00 +6°C° 0 mm 1 mps 650 mmHg 86%
    01:00 +6°C° 0 mm 1 mps 650 mmHg 85%
    02:00 +5°C° 0 mm 1 mps 649 mmHg 84%
    03:00 +5°C° 0 mm 1 mps 649 mmHg 83%
    04:00 +5°C° 0 mm 1 mps 649 mmHg 82%
    05:00 +5°C° 0 mm 1 mps 649 mmHg 81%
    06:00 +6°C° 0 mm 1 mps 649 mmHg 80%
    07:00 +6°C° 0 mm 1 mps 649 mmHg 79%
    08:00 +8°C° 0 mm 1 mps 650 mmHg 72%
    09:00 +11°C° 0 mm 1 mps 650 mmHg 64%
    10:00 +13°C° 0 mm 1 mps 651 mmHg 57%
    11:00 +14°C° 0 mm 2 mps 651 mmHg 56%
    12:00 +15°C° 0 mm 2 mps 651 mmHg 54%
    13:00 +16°C° 0 mm 2 mps 651 mmHg 53%
    14:00 +16°C° 0 mm 2 mps 651 mmHg 57%
    15:00 +14°C° 0 mm 3 mps 650 mmHg 60%
    16:00 +14°C° 0 mm 3 mps 650 mmHg 64%
    17:00 +13°C° 0 mm 2 mps 650 mmHg 74%
    18:00 +9°C° 0 mm 2 mps 649 mmHg 84%
    19:00 +8°C° 0 mm 1 mps 649 mmHg 94%
    20:00 +8°C° 0 mm 1 mps 649 mmHg 94%
    21:00 +7°C° 0 mm 1 mps 648 mmHg 95%
    22:00 +7°C° 0 mm 1 mps 648 mmHg 96%
    23:00 +6°C° 0 mm 1 mps 648 mmHg 95%

    24 September, Sunday

    Time Temperature Precipitation Wind Pressure Humidity
    00:00 +6°C° 0 mm 1 mps 648 mmHg 95%
    01:00 +5°C° 0 mm 1 mps 647 mmHg 95%
    02:00 +5°C° 0 mm 1 mps 647 mmHg 94%
    03:00 +5°C° 0 mm 1 mps 647 mmHg 94%
    04:00 +4°C° 0 mm 1 mps 647 mmHg 94%
    05:00 +5°C° 0 mm 1 mps 647 mmHg 93%
    06:00 +5°C° 0 mm 1 mps 647 mmHg 93%
    07:00 +5°C° 0 mm 1 mps 647 mmHg 92%
    08:00 +8°C° 0 mm 1 mps 647 mmHg 83%
    09:00 +10°C° 0 mm 1 mps 648 mmHg 73%
    10:00 +12°C° 0 mm 1 mps 648 mmHg 64%
    11:00 +13°C° 0 mm 1 mps 648 mmHg 60%
    12:00 +14°C° 0 mm 1 mps 648 mmHg 56%
    13:00 +15°C° 0 mm 2 mps 648 mmHg 52%
    14:00 +15°C° 0 mm 2 mps 648 mmHg 56%
    15:00 +14°C° 0 mm 2 mps 648 mmHg 59%
    16:00 +14°C° 0 mm 2 mps 648 mmHg 62%
    17:00 +12°C° 0 mm 1 mps 648 mmHg 72%
    18:00 +9°C° 0 mm 1 mps 647 mmHg 82%
    19:00 +7°C° 0 mm 1 mps 647 mmHg 92%
    20:00 +7°C° 0 mm 1 mps 647 mmHg 92%
    21:00 +6°C° 0 mm 1 mps 647 mmHg 93%
    22:00 +6°C° 0 mm 1 mps 647 mmHg 94%
    23:00 +6°C° 0 mm 1 mps 647 mmHg 92%
    Show more